TimeCST,TemperatureF,Dew PointF,Humidity,Sea Level PressureIn,VisibilityMPH,Wind Direction,Wind SpeedMPH,Gust SpeedMPH,PrecipitationIn,Events,Conditions,WindDirDegrees,DateUTC
12:15 AM,30.2,23.0,75,30.35,10.0,SSE,10.4,-,N/A,,Overcast,150,2013-02-09 06:15:00
12:35 AM,30.2,23.0,75,30.35,10.0,South,9.2,-,N/A,,Overcast,170,2013-02-09 06:35:00
12:55 AM,30.2,23.0,75,30.34,10.0,SE,10.4,-,N/A,,Overcast,140,2013-02-09 06:55:00
1:15 AM,30.2,23.0,75,30.34,10.0,SSE,9.2,-,N/A,,Overcast,150,2013-02-09 07:15:00
1:35 AM,30.2,23.0,75,30.35,10.0,South,6.9,-,N/A,,Overcast,170,2013-02-09 07:35:00
1:55 AM,30.2,23.0,75,30.33,10.0,SSE,10.4,-,N/A,,Overcast,160,2013-02-09 07:55:00
2:15 AM,28.4,23.0,80,30.33,10.0,South,10.4,-,N/A,,Overcast,170,2013-02-09 08:15:00
2:55 AM,28.4,23.0,80,30.33,10.0,SE,8.1,-,N/A,,Overcast,130,2013-02-09 08:55:00
3:15 AM,28.4,23.0,80,30.33,10.0,SE,10.4,-,N/A,,Overcast,140,2013-02-09 09:15:00
3:35 AM,28.4,23.0,80,30.32,10.0,SE,8.1,-,N/A,,Overcast,140,2013-02-09 09:35:00
3:55 AM,28.4,23.0,80,30.32,10.0,SSE,11.5,16.1,N/A,,Overcast,150,2013-02-09 09:55:00
4:15 AM,28.4,23.0,80,30.33,10.0,South,10.4,-,N/A,,Overcast,170,2013-02-09 10:15:00
4:35 AM,28.4,23.0,80,30.32,10.0,South,12.7,16.1,N/A,,Overcast,170,2013-02-09 10:35:00
4:55 AM,28.4,23.0,80,30.31,10.0,SE,10.4,-,N/A,,Overcast,140,2013-02-09 10:55:00
5:15 AM,28.4,23.0,80,30.31,10.0,SSE,8.1,-,N/A,,Overcast,160,2013-02-09 11:15:00
5:35 AM,28.4,23.0,80,30.31,10.0,SSE,10.4,16.1,N/A,,Overcast,160,2013-02-09 11:35:00
5:55 AM,28.4,23.0,80,30.32,10.0,South,11.5,-,N/A,,Overcast,170,2013-02-09 11:55:00
6:15 AM,28.4,23.0,80,30.32,10.0,SSE,6.9,-,N/A,,Overcast,160,2013-02-09 12:15:00
6:35 AM,28.4,23.0,80,30.31,10.0,SSE,11.5,16.1,N/A,,Overcast,160,2013-02-09 12:35:00
6:55 AM,28.4,24.8,86,30.31,10.0,SSE,10.4,-,N/A,,Overcast,160,2013-02-09 12:55:00
7:15 AM,28.4,24.8,86,30.31,10.0,SSE,8.1,-,N/A,,Overcast,150,2013-02-09 13:15:00
7:35 AM,28.4,24.8,86,30.31,10.0,SE,8.1,-,N/A,,Overcast,140,2013-02-09 13:35:00
7:55 AM,30.2,24.8,80,30.31,10.0,SE,9.2,-,N/A,,Overcast,140,2013-02-09 13:55:00
8:15 AM,30.2,24.8,80,30.31,10.0,SE,13.8,-,N/A,,Overcast,140,2013-02-09 14:15:00
8:35 AM,30.2,24.8,80,30.30,10.0,SE,9.2,-,N/A,,Overcast,140,2013-02-09 14:35:00
8:55 AM,30.2,24.8,80,30.30,10.0,SSE,10.4,-,N/A,,Overcast,150,2013-02-09 14:55:00
9:15 AM,30.2,24.8,80,30.29,10.0,SSE,11.5,-,N/A,,Overcast,150,2013-02-09 15:15:00
9:35 AM,30.2,24.8,80,30.28,10.0,SSE,12.7,18.4,N/A,,Overcast,150,2013-02-09 15:35:00
9:55 AM,30.2,24.8,80,30.27,10.0,SSE,13.8,17.3,N/A,,Overcast,150,2013-02-09 15:55:00
10:15 AM,30.2,24.8,80,30.26,10.0,SSE,15.0,-,N/A,,Overcast,150,2013-02-09 16:15:00
10:35 AM,32.0,24.8,75,30.25,10.0,SSE,16.1,21.9,N/A,,Overcast,150,2013-02-09 16:35:00
10:55 AM,32.0,24.8,75,30.25,10.0,SSE,17.3,24.2,N/A,,Overcast,150,2013-02-09 16:55:00
11:15 AM,32.0,24.8,75,30.24,10.0,SSE,16.1,24.2,N/A,,Overcast,150,2013-02-09 17:15:00
11:35 AM,33.8,24.8,70,30.23,10.0,SSE,18.4,23.0,N/A,,Overcast,150,2013-02-09 17:35:00
11:55 AM,33.8,24.8,70,30.23,10.0,South,17.3,21.9,N/A,,Overcast,170,2013-02-09 17:55:00
12:15 PM,33.8,24.8,70,30.22,10.0,SSE,12.7,16.1,N/A,,Overcast,150,2013-02-09 18:15:00
12:35 PM,33.8,26.6,75,30.21,10.0,South,12.7,-,N/A,,Overcast,170,2013-02-09 18:35:00
12:55 PM,33.8,26.6,75,30.21,10.0,South,13.8,19.6,N/A,,Overcast,170,2013-02-09 18:55:00
1:15 PM,33.8,26.6,75,30.20,10.0,SSE,11.5,18.4,N/A,,Overcast,150,2013-02-09 19:15:00
1:35 PM,33.8,26.6,75,30.18,10.0,SE,11.5,-,N/A,,Overcast,140,2013-02-09 19:35:00
1:55 PM,33.8,26.6,75,30.16,10.0,SSE,12.7,-,N/A,,Overcast,150,2013-02-09 19:55:00
2:15 PM,33.8,26.6,75,30.15,10.0,SSE,13.8,-,N/A,,Mostly Cloudy,160,2013-02-09 20:15:00
2:55 PM,35.6,26.6,70,30.13,10.0,South,12.7,-,N/A,,Clear,170,2013-02-09 20:55:00
3:15 PM,37.4,28.4,70,30.12,10.0,SSE,12.7,-,N/A,,Clear,160,2013-02-09 21:15:00
3:35 PM,37.4,28.4,70,30.11,10.0,SSE,10.4,-,N/A,,Clear,150,2013-02-09 21:35:00
3:55 PM,37.4,28.4,70,30.10,10.0,SE,9.2,-,N/A,,Scattered Clouds,140,2013-02-09 21:55:00
4:15 PM,35.6,28.4,75,30.10,10.0,SE,6.9,-,N/A,,Scattered Clouds,140,2013-02-09 22:15:00
4:35 PM,35.6,28.4,75,30.08,10.0,SE,10.4,-,N/A,,Clear,140,2013-02-09 22:35:00
4:55 PM,35.6,28.4,75,30.07,10.0,SE,10.4,-,N/A,,Clear,130,2013-02-09 22:55:00
5:15 PM,35.6,28.4,75,30.06,10.0,SE,8.1,-,N/A,,Clear,130,2013-02-09 23:15:00
5:35 PM,35.6,28.4,75,30.06,10.0,SE,8.1,-,N/A,,Clear,140,2013-02-09 23:35:00
5:55 PM,35.6,28.4,75,30.06,10.0,SE,9.2,-,N/A,,Clear,130,2013-02-09 23:55:00
6:15 PM,35.6,28.4,75,30.06,10.0,SE,9.2,-,N/A,,Clear,130,2013-02-10 00:15:00
6:35 PM,35.6,28.4,75,30.06,10.0,SE,9.2,-,N/A,,Clear,140,2013-02-10 00:35:00
6:55 PM,35.6,28.4,75,30.05,10.0,SSE,12.7,-,N/A,,Clear,150,2013-02-10 00:55:00
7:35 PM,33.8,28.4,81,30.05,10.0,SSE,11.5,17.3,N/A,,Clear,150,2013-02-10 01:35:00
7:55 PM,33.8,28.4,81,30.05,10.0,SE,9.2,-,N/A,,Clear,140,2013-02-10 01:55:00
8:15 PM,33.8,28.4,81,30.04,10.0,SE,9.2,-,N/A,,Clear,130,2013-02-10 02:15:00
8:35 PM,33.8,28.4,81,30.03,10.0,SE,9.2,-,N/A,,Clear,130,2013-02-10 02:35:00
8:55 PM,33.8,28.4,81,30.02,10.0,SE,6.9,-,N/A,,Scattered Clouds,130,2013-02-10 02:55:00
9:15 PM,33.8,28.4,81,30.02,10.0,SE,6.9,-,N/A,,Scattered Clouds,140,2013-02-10 03:15:00
9:35 PM,33.8,28.4,81,30.01,10.0,SE,8.1,-,N/A,,Clear,140,2013-02-10 03:35:00
9:55 PM,33.8,28.4,81,30.00,10.0,SE,6.9,-,N/A,,Clear,130,2013-02-10 03:55:00
10:15 PM,33.8,28.4,81,29.99,10.0,SE,8.1,-,N/A,,Clear,130,2013-02-10 04:15:00
10:35 PM,33.8,28.4,81,29.98,10.0,SE,9.2,-,N/A,,Clear,130,2013-02-10 04:35:00
10:55 PM,33.8,28.4,81,29.98,10.0,SE,8.1,-,N/A,,Clear,130,2013-02-10 04:55:00
11:15 PM,35.6,28.4,75,29.99,10.0,SSE,8.1,-,N/A,,Scattered Clouds,160,2013-02-10 05:15:00
11:35 PM,35.6,30.2,81,29.98,10.0,SE,5.8,-,N/A,,Mostly Cloudy,130,2013-02-10 05:35:00
11:55 PM,35.6,30.2,81,29.98,10.0,SE,6.9,-,N/A,,Mostly Cloudy,140,2013-02-10 05:55:00